| time (UTC) | temp C | wind direction | speed KPH | gust KPH | rain 1hr cm | rain 24hr cm | rain mn cm | humidity % | barometer mb |
| 20260906085108 | 16 | 90 | 0.0 | 9.7 | 0.00 | 0.10 | 0.10 | 84 | 1011.5 |
| 20260906084036 | 15 | 246 | 3.2 | 9.7 | 0.00 | 0.10 | 0.10 | 83 | 1011.9 |
| 20260906083035 | 15 | 71 | 3.2 | 11.3 | 0.00 | 0.10 | 0.10 | 86 | 1011.9 |
| 20260906082035 | 15 | 308 | 1.6 | 11.3 | 0.00 | 0.10 | 0.10 | 86 | 1011.9 |
| 20260906081033 | 15 | 230 | 1.6 | 11.3 | 0.00 | 0.10 | 0.10 | 86 | 1011.9 |
| 20260906080033 | 14 | 157 | 3.2 | 6.4 | 0.00 | 0.10 | 0.10 | 90 | 1011.9 |
| 20260906075031 | 13 | 60 | 1.6 | 9.7 | 0.00 | 0.10 | 0.10 | 91 | 1011.9 |
| 20260906074030 | 13 | 270 | 1.6 | 11.3 | 0.03 | 0.10 | 0.10 | 91 | 1011.9 |
| 20260906073029 | 13 | 109 | 1.6 | 4.8 | 0.10 | 0.10 | 0.10 | 92 | 1011.9 |
| 20260906072028 | 12 | 36 | 3.2 | 8.0 | 0.10 | 0.10 | 0.10 | 92 | 1012.2 |
| 20260906071027 | 12 | 230 | 1.6 | 9.7 | 0.10 | 0.10 | 0.10 | 91 | 1011.9 |
| 20260906070026 | 13 | 202 | 1.6 | 8.0 | 0.10 | 0.10 | 0.10 | 90 | 1011.9 |
| 20260906065025 | 13 | 67 | 1.6 | 6.4 | 0.10 | 0.10 | 0.10 | 89 | 1011.9 |
| 20260906064024 | 14 | 278 | 0.0 | 4.8 | 0.08 | 0.08 | 0.08 | 85 | 1011.9 |
| 20260906063023 | 15 | 65 | 1.6 | 12.9 | 0.00 | 0.00 | 0.00 | 77 | 1011.5 |
| 20260906062021 | 15 | 118 | 1.6 | 12.9 | 0.00 | 0.00 | 0.00 | 73 | 1011.5 |
| 20260906061021 | 15 | 338 | 1.6 | 6.4 | 0.00 | 0.00 | 0.00 | 73 | 1011.5 |
| 20260906060019 | 15 | 101 | 3.2 | 9.7 | 0.00 | 0.00 | 0.00 | 74 | 1011.5 |
| 20260906055018 | 15 | 300 | 3.2 | 9.7 | 0.00 | 0.00 | 0.00 | 74 | 1011.2 |
| 20260906054017 | 15 | 174 | 3.2 | 4.8 | 0.00 | 0.03 | 0.00 | 74 | 1011.2 |
| 20260906053016 | 15 | 148 | 1.6 | 3.2 | 0.00 | 0.03 | 0.00 | 75 | 1011.2 |
| 20260906052015 | 15 | 224 | 1.6 | 6.4 | 0.00 | 0.03 | 0.00 | 75 | 1010.8 |
| 20260906050943 | 14 | 135 | 0.0 | 1.6 | 0.00 | 0.03 | 0.00 | 76 | 1011.2 |
| 20260906045942 | 14 | 188 | 1.6 | 4.8 | 0.00 | 0.03 | 0.00 | 78 | 1011.2 |
| 20260906044941 | 13 | 120 | 3.2 | 4.8 | 0.00 | 0.03 | 0.00 | 79 | 1011.2 |
| 20260906043940 | 13 | 66 | 1.6 | 6.4 | 0.00 | 0.03 | 0.00 | 80 | 1011.5 |
| 20260906042908 | 13 | 188 | 0.0 | 6.4 | 0.00 | 0.03 | 0.00 | 80 | 1011.5 |
| 20260906041906 | 13 | 148 | 0.0 | 4.8 | 0.00 | 0.03 | 0.00 | 80 | 1011.2 |
| 20260906040905 | 13 | 160 | 1.6 | 4.8 | 0.00 | 0.03 | 0.00 | 80 | 1011.5 |
| 20260906035904 | 13 | 135 | 0.0 | 4.8 | 0.00 | 0.03 | 0.00 | 80 | 1011.2 |
| 20260906034832 | 13 | 142 | 1.6 | 3.2 | 0.00 | 0.03 | 0.00 | 80 | 1011.2 |
| 20260906033831 | 13 | 173 | 1.6 | 3.2 | 0.00 | 0.03 | 0.00 | 80 | 1011.2 |
| 20260906032830 | 13 | 176 | 1.6 | 6.4 | 0.00 | 0.03 | 0.00 | 80 | 1011.2 |
| 20260906031829 | 13 | 130 | 3.2 | 6.4 | 0.00 | 0.03 | 0.00 | 80 | 1011.2 |
| 20260906030828 | 13 | 148 | 1.6 | 3.2 | 0.00 | 0.03 | 0.00 | 79 | 1010.8 |
| 20260906025827 | 13 | 124 | 1.6 | 4.8 | 0.00 | 0.03 | 0.00 | 79 | 1010.8 |
| 20260906024826 | 13 | 349 | 0.0 | 4.8 | 0.00 | 0.03 | 0.00 | 79 | 1010.8 |
| 20260906023825 | 13 | 55 | 0.0 | 9.7 | 0.00 | 0.03 | 0.00 | 78 | 1010.8 |
| 20260906022824 | 13 | 103 | 1.6 | 9.7 | 0.00 | 0.03 | 0.00 | 78 | 1010.8 |
| 20260906021824 | 14 | 102 | 3.2 | 4.8 | 0.00 | 0.03 | 0.00 | 77 | 1010.8 |
| 20260906020823 | 14 | 100 | 0.0 | 4.8 | 0.00 | 0.03 | 0.00 | 77 | 1010.5 |
| 20260906015822 | 14 | 155 | 3.2 | 4.8 | 0.00 | 0.03 | 0.00 | 76 | 1010.5 |
| 20260906014821 | 14 | 213 | 1.6 | 4.8 | 0.00 | 0.03 | 0.00 | 76 | 1010.5 |
| 20260906013820 | 14 | 12 | 0.0 | 4.8 | 0.00 | 0.03 | 0.00 | 76 | 1010.5 |
| 20260906012819 | 15 | 143 | 0.0 | 4.8 | 0.00 | 0.03 | 0.00 | 75 | 1010.5 |
| 20260906011819 | 15 | 271 | 0.0 | 6.4 | 0.00 | 0.03 | 0.00 | 75 | 1010.5 |
| 20260906010818 | 15 | 161 | 3.2 | 8.0 | 0.00 | 0.03 | 0.00 | 75 | 1010.5 |
| 20260906005746 | 15 | 95 | 1.6 | 8.0 | 0.00 | 0.03 | 0.00 | 75 | 1010.8 |
| 20260906004745 | 15 | 122 | 1.6 | 6.4 | 0.00 | 0.03 | 0.00 | 75 | 1010.8 |
| 20260906003713 | 15 | 106 | 1.6 | 4.8 | 0.00 | 0.03 | 0.00 | 75 | 1010.8 |
| 20260906002712 | 15 | 278 | 3.2 | 4.8 | 0.00 | 0.03 | 0.00 | 75 | 1010.8 |
| 20260906001711 | 15 | 181 | 1.6 | 3.2 | 0.00 | 0.03 | 0.00 | 75 | 1010.8 |
| 20260906000639 | 15 | 44 | 0.0 | 3.2 | 0.00 | 0.03 | 0.00 | 74 | 1010.8 |
| 20260905235638 | 15 | 115 | 1.6 | 3.2 | 0.00 | 0.03 | 0.00 | 74 | 1010.8 |
| 20260905234637 | 15 | 121 | 0.0 | 3.2 | 0.00 | 0.03 | 0.00 | 73 | 1010.8 |
| 20260905233636 | 15 | 153 | 0.0 | 1.6 | 0.00 | 0.03 | 0.00 | 73 | 1010.8 |
| 20260905232635 | 15 | 193 | 0.0 | 4.8 | 0.00 | 0.03 | 0.00 | 73 | 1010.8 |
| 20260905231633 | 15 | 139 | 1.6 | 4.8 | 0.00 | 0.03 | 0.00 | 73 | 1010.8 |
| 20260905230632 | 16 | 147 | 0.0 | 1.6 | 0.00 | 0.03 | 0.00 | 72 | 1010.8 |
| 20260905225631 | 16 | 281 | 0.0 | 1.6 | 0.00 | 0.03 | 0.00 | 71 | 1010.8 |
| 20260905224630 | 16 | 263 | 1.6 | 1.6 | 0.00 | 0.03 | 0.00 | 70 | 1010.8 |
| 20260905223629 | 16 | 215 | 0.0 | 4.8 | 0.00 | 0.03 | 0.00 | 70 | 1010.8 |
| 20260905222628 | 16 | 272 | 1.6 | 8.0 | 0.00 | 0.03 | 0.00 | 69 | 1010.8 |
| 20260905221627 | 16 | 229 | 1.6 | 8.0 | 0.00 | 0.03 | 0.00 | 69 | 1010.8 |
| 20260905220627 | 16 | 113 | 1.6 | 1.6 | 0.00 | 0.03 | 0.00 | 69 | 1010.8 |
| 20260905215523 | 16 | 67 | 0.0 | 3.2 | 0.00 | 0.03 | 0.00 | 68 | 1010.8 |
| 20260905214523 | 16 | 34 | 1.6 | 4.8 | 0.00 | 0.03 | 0.00 | 68 | 1010.8 |
| 20260905213522 | 17 | 109 | 1.6 | 3.2 | 0.00 | 0.03 | 0.00 | 67 | 1010.8 |
| 20260905212520 | 17 | 96 | 1.6 | 4.8 | 0.00 | 0.03 | 0.00 | 66 | 1010.8 |
| 20260905211520 | 17 | 123 | 3.2 | 4.8 | 0.00 | 0.03 | 0.00 | 65 | 1010.5 |
| 20260905210519 | 17 | 83 | 1.6 | 3.2 | 0.00 | 0.03 | 0.00 | 65 | 1010.5 |
| 20260905205518 | 17 | 311 | 0.0 | 4.8 | 0.00 | 0.03 | 0.05 | 65 | 1010.5 |
| 20260905204517 | 17 | 290 | 1.6 | 6.4 | 0.00 | 0.03 | 0.05 | 65 | 1010.5 |
| 20260905203516 | 17 | 148 | 0.0 | 3.2 | 0.00 | 0.03 | 0.05 | 65 | 1010.5 |
| 20260905202515 | 17 | 116 | 0.0 | 1.6 | 0.00 | 0.03 | 0.05 | 64 | 1010.5 |
| 20260905201514 | 17 | 75 | 1.6 | 3.2 | 0.00 | 0.03 | 0.05 | 64 | 1010.5 |
| 20260905200513 | 17 | 58 | 1.6 | 4.8 | 0.00 | 0.03 | 0.05 | 63 | 1010.5 |
| 20260905195512 | 17 | 257 | 1.6 | 4.8 | 0.00 | 0.03 | 0.05 | 64 | 1010.5 |
| 20260905194511 | 17 | 143 | 0.0 | 1.6 | 0.00 | 0.03 | 0.05 | 64 | 1010.5 |
| 20260905193510 | 17 | 133 | 1.6 | 3.2 | 0.00 | 0.03 | 0.05 | 64 | 1010.5 |
| 20260905192509 | 17 | 168 | 1.6 | 3.2 | 0.00 | 0.03 | 0.05 | 65 | 1010.5 |
| 20260905191508 | 17 | 88 | 1.6 | 1.6 | 0.00 | 0.03 | 0.05 | 65 | 1010.5 |
| 20260905190507 | 17 | 101 | 1.6 | 1.6 | 0.00 | 0.03 | 0.05 | 65 | 1010.2 |
| 20260905185506 | 18 | 120 | 0.0 | 1.6 | 0.00 | 0.03 | 0.05 | 65 | 1010.2 |
| 20260905184434 | 18 | 169 | 0.0 | 1.6 | 0.00 | 0.03 | 0.05 | 65 | 1010.2 |
| 20260905183402 | 18 | 77 | 0.0 | 1.6 | 0.00 | 0.03 | 0.05 | 64 | 1010.2 |
| 20260905182401 | 19 | 68 | 0.0 | 3.2 | 0.00 | 0.03 | 0.05 | 63 | 1010.2 |
| 20260905181400 | 19 | 102 | 1.6 | 3.2 | 0.00 | 0.03 | 0.05 | 62 | 1010.2 |
| 20260905180358 | 19 | 85 | 1.6 | 3.2 | 0.00 | 0.03 | 0.05 | 61 | 1010.2 |
| 20260905175357 | 19 | 150 | 1.6 | 1.6 | 0.00 | 0.03 | 0.05 | 61 | 1009.8 |
| 20260905174325 | 20 | 208 | 1.6 | 6.4 | 0.00 | 0.03 | 0.05 | 60 | 1009.8 |
| 20260905173324 | 20 | 126 | 1.6 | 6.4 | 0.00 | 0.03 | 0.05 | 59 | 1009.8 |
| 20260905172323 | 20 | 65 | 0.0 | 3.2 | 0.00 | 0.03 | 0.05 | 58 | 1009.8 |
| 20260905171321 | 20 | 159 | 0.0 | 3.2 | 0.00 | 0.03 | 0.05 | 58 | 1009.5 |
| 20260905170321 | 20 | 159 | 0.0 | 3.2 | 0.00 | 0.03 | 0.05 | 57 | 1009.5 |
| 20260905165320 | 20 | 91 | 0.0 | 4.8 | 0.00 | 0.03 | 0.05 | 57 | 1009.5 |
| 20260905164319 | 20 | 178 | 3.2 | 8.0 | 0.00 | 0.03 | 0.05 | 57 | 1009.1 |
| 20260905163318 | 21 | 222 | 0.0 | 9.7 | 0.00 | 0.03 | 0.05 | 57 | 1009.1 |
| 20260905162316 | 21 | 127 | 1.6 | 11.3 | 0.00 | 0.03 | 0.05 | 58 | 1009.1 |
| 20260905161245 | 21 | 103 | 1.6 | 11.3 | 0.00 | 0.03 | 0.05 | 59 | 1009.1 |
| 20260905160244 | 21 | 60 | 0.0 | 4.8 | 0.00 | 0.03 | 0.05 | 59 | 1009.1 |
| 20260905155243 | 21 | 2 | 3.2 | 4.8 | 0.00 | 0.03 | 0.05 | 59 | 1008.8 |
| 20260905154140 | 21 | 222 | 1.6 | 8.0 | 0.00 | 0.03 | 0.05 | 58 | 1008.8 |
| 20260905153139 | 22 | 205 | 1.6 | 11.3 | 0.00 | 0.03 | 0.05 | 56 | 1008.8 |
| 20260905152138 | 22 | 88 | 4.8 | 11.3 | 0.00 | 0.03 | 0.05 | 55 | 1008.8 |
| 20260905151106 | 23 | 145 | 1.6 | 17.7 | 0.00 | 0.03 | 0.05 | 53 | 1008.8 |
| 20260905150105 | 22 | 190 | 1.6 | 17.7 | 0.00 | 0.03 | 0.05 | 54 | 1008.5 |
| 20260905145104 | 22 | 108 | 3.2 | 14.5 | 0.00 | 0.03 | 0.05 | 53 | 1008.8 |
| 20260905144031 | 22 | 186 | 3.2 | 11.3 | 0.00 | 0.03 | 0.05 | 56 | 1008.5 |
| 20260905143030 | 23 | 32 | 3.2 | 14.5 | 0.00 | 0.03 | 0.05 | 56 | 1008.5 |
| 20260905141958 | 23 | 137 | 3.2 | 16.1 | 0.00 | 0.03 | 0.05 | 55 | 1008.5 |
| 20260905140957 | 23 | 326 | 1.6 | 11.3 | 0.00 | 0.03 | 0.05 | 55 | 1008.5 |
| 20260905135926 | 23 | 158 | 1.6 | 12.9 | 0.00 | 0.03 | 0.05 | 54 | 1008.5 |
| 20260905134925 | 23 | 49 | 1.6 | 8.0 | 0.00 | 0.03 | 0.05 | 54 | 1008.5 |
| 20260905133924 | 23 | 161 | 1.6 | 8.0 | 0.00 | 0.03 | 0.05 | 53 | 1008.1 |
| 20260905132851 | 23 | 140 | 3.2 | 16.1 | 0.00 | 0.03 | 0.05 | 53 | 1008.1 |
| 20260905131850 | 23 | 206 | 4.8 | 16.1 | 0.00 | 0.03 | 0.05 | 52 | 1008.1 |
| 20260905130849 | 23 | 80 | 3.2 | 9.7 | 0.00 | 0.03 | 0.05 | 51 | 1008.1 |
| 20260905125746 | 23 | 178 | 3.2 | 11.3 | 0.00 | 0.03 | 0.05 | 50 | 1008.1 |
| 20260905124745 | 23 | 333 | 3.2 | 9.7 | 0.00 | 0.03 | 0.05 | 50 | 1008.5 |
| 20260905123712 | 23 | 214 | 1.6 | 9.7 | 0.00 | 0.03 | 0.05 | 48 | 1008.1 |
| 20260905122711 | 24 | 126 | 1.6 | 11.3 | 0.00 | 0.03 | 0.05 | 48 | 1008.1 |
| 20260905121710 | 24 | 38 | 3.2 | 11.3 | 0.00 | 0.03 | 0.05 | 47 | 1008.1 |
| 20260905120709 | 24 | 207 | 3.2 | 9.7 | 0.00 | 0.03 | 0.05 | 48 | 1008.1 |
| 20260905115708 | 25 | 153 | 3.2 | 9.7 | 0.00 | 0.03 | 0.05 | 46 | 1008.1 |
| 20260905114707 | 26 | 56 | 3.2 | 8.0 | 0.00 | 0.03 | 0.05 | 45 | 1007.5 |
| 20260905113706 | 26 | 291 | 4.8 | 9.7 | 0.00 | 0.03 | 0.05 | 43 | 1007.5 |
| 20260905112603 | 25 | 50 | 3.2 | 14.5 | 0.00 | 0.03 | 0.05 | 46 | 1007.8 |
| 20260905111602 | 25 | 110 | 3.2 | 16.1 | 0.00 | 0.03 | 0.05 | 47 | 1007.5 |
| 20260905110601 | 26 | 212 | 4.8 | 12.9 | 0.00 | 0.03 | 0.05 | 48 | 1007.5 |
| 20260905105600 | 26 | 332 | 4.8 | 12.9 | 0.00 | 0.03 | 0.05 | 48 | 1007.5 |
| 20260905104559 | 27 | 23 | 3.2 | 9.7 | 0.00 | 0.03 | 0.05 | 48 | 1007.1 |
| 20260905103558 | 27 | 101 | 1.6 | 9.7 | 0.00 | 0.03 | 0.05 | 47 | 1007.1 |
| 20260905102557 | 27 | 228 | 3.2 | 9.7 | 0.00 | 0.03 | 0.05 | 47 | 1007.1 |
| 20260905101555 | 26 | 335 | 1.6 | 9.7 | 0.00 | 0.03 | 0.05 | 53 | 1007.1 |
| 20260905100554 | 25 | 178 | 3.2 | 11.3 | 0.00 | 0.03 | 0.05 | 55 | 1007.1 |
| 20260905095553 | 25 | 199 | 3.2 | 12.9 | 0.00 | 0.03 | 0.05 | 57 | 1007.1 |
| 20260905094552 | 26 | 121 | 1.6 | 9.7 | 0.00 | 0.03 | 0.05 | 57 | 1006.8 |
| 20260905093520 | 25 | 115 | 3.2 | 12.9 | 0.00 | 0.03 | 0.05 | 59 | 1007.1 |
| 20260905092519 | 25 | 236 | 1.6 | 6.4 | 0.00 | 0.03 | 0.05 | 60 | 1006.8 |
| 20260905091519 | 25 | 184 | 3.2 | 8.0 | 0.00 | 0.03 | 0.05 | 59 | 1006.8 |
| 20260905090518 | 26 | 68 | 3.2 | 8.0 | 0.00 | 0.03 | 0.05 | 57 | 1006.8 |